This demonstration page uses our WeatherBlox Daily Observations layout. Learn more.

Left ArrowRight Arrow

39.01783, -85.05884

Hourly Observations for May 17, 2018

Temp ( °F °C ) Dew Point ( °F °C ) Humidity (%) Winds ( mph kmh ) Pressure ( in mb ) Visibility ( mi km ) Precip ( " mm )
12:13 am 00:13 Mostly Cloudy with Mist and Fog 68 20 65 18.3 90 90 N 3 6 29.91 1013 5 8 0.00 0.00
12:52 am 00:52 Partly Cloudy with Mist and Fog 68 20 65 18.3 90 90 N 5 7 29.91 1013 5 8 0.00 0.00
1:52 am 01:52 Clear with Mist and Fog 66 18.9 64 17.8 93 93 N 6 9 29.91 1013 4 6 0.00 0.00
2:52 am 02:52 Partly Cloudy with Mist and Fog 66 18.9 64 17.8 93 93 N 6 9 29.90 1013 4 6 0.00 0.00
3:52 am 03:52 Mostly Cloudy with Mist and Fog 66 18.9 64 17.8 93 93 N 5 7 29.91 1013 3 5 0.00 0.00
4:52 am 04:52 Cloudy with Mist and Fog 66 18.9 63 17.2 90 90 NE 6 9 29.90 1013 4 6 0.00 0.00
5:52 am 05:52 Partly Cloudy with Mist and Fog 66 18.9 63 17.2 90 90 NNE 8 13 29.90 1013 4 6 0.00 0.00
6:25 am 06:25 Mostly Cloudy with Mist and Fog 65 18.3 63 17.2 93 93 NNE 9 15 29.91 1013 2 3 0.00 0.00
6:52 am 06:52 Mostly Cloudy with Patchy Fog 66 18.9 63 17.2 90 90 NNE 7 11 29.92 1013 2 3 0.00 0.00
7:52 am 07:52 Mostly Cloudy with Mist and Fog 67 19.4 63 17.2 87 87 NNE 9 15 29.94 1014 3 5 0.00 0.00
8:52 am 08:52 Mostly Cloudy with Mist and Fog 68 20 63 17.2 84 84 N 6 9 29.95 1014 3 5 0.00 0.00
9:52 am 09:52 Mostly Cloudy with Haze 71 21.7 63 17.2 76 76 ENE 9 15 29.96 1014 3 5 0.00 0.00
10:52 am 10:52 Mostly Cloudy 74 23.3 64 17.8 71 71 ENE 10 17 29.96 1014 7 11 0.00 0.00
11:52 am 11:52 Mostly Cloudy 78 25.6 64 17.8 62 62 ENE 14 22 29.96 1014 10 16 0.00 0.00
12:52 pm 12:52 Mostly Cloudy 79 26.1 63 17.2 58 58 NE 12 19 29.95 1014 10 16 0.00 0.00
1:52 pm 13:52 Mostly Cloudy 80 26.7 62 16.7 54 54 NE 13 20 29.93 1014 10 16 0.00 0.00
2:52 pm 14:52 Mostly Cloudy 79 26.1 61 16.1 54 54 E 12 19 29.91 1013 10 16 0.00 0.00
3:52 pm 15:52 Cloudy 79 26.1 62 16.7 56 56 E 10 17 29.90 1013 10 16 0.00 0.00
4:52 pm 16:52 Cloudy with Light Rain 76 24.4 64 17.8 67 67 ENE 13 20 29.90 1012 9 14 0.00 0.03
5:34 pm 17:34 Cloudy with Nearby Thunderstorms 75 23.9 63 17.2 66 66 E 16 26 29.91 1013 10 16 0.00 0.03
5:45 pm 17:45 Cloudy with Thunderstorms 72 22.2 62 16.7 71 71 E 13 20 29.91 1013 10 16 0.00 0.03
5:52 pm 17:52 Cloudy with Thunderstorms 72 22.2 61 16.1 68 68 E 10 17 29.91 1013 9 14 0.00 0.03
6:03 pm 18:03 Cloudy with Light Rain 72 22.2 62 16.7 71 71 ENE 10 17 29.91 1013 10 16 0.00 0.03
6:52 pm 18:52 Cloudy with Light Rain 72 22.2 65 18.3 79 79 ENE 10 17 29.91 1013 10 16 0.00 0.03
7:52 pm 19:52 Cloudy with Light Rain 72 22.2 65 18.3 79 79 NE 10 17 29.93 1014 10 16 0.00 0.03
8:52 pm 20:52 Cloudy with Light Rain 70 21.1 66 18.9 87 87 NNE 10 17 29.93 1014 8 13 0.01 0.25
9:52 pm 21:52 Cloudy 70 21.1 65 18.3 84 84 NE 9 15 29.94 1014 9 14 0.00 0.03
10:52 pm 22:52 Cloudy 71 21.7 66 18.9 84 84 NE 13 20 29.94 1014 8 13 0.00 0.00
11:52 pm 23:52 Mostly Cloudy 70 21.1 65 18.3 84 84 ENE 10 17 29.93 1014 10 16 0.00 0.03

Powered by AerisWeather